Total_Precipitation_Accumulation
0.12 0.15 0.21 0.39 0.50 0.42 0.31 0.29 0.37 0.37 0.36 0.40 0.48 0.58 0.56 0.50 0.48 0.48 0.46 0.42 0.41 0.41 0.39 0.39 0.39 0.39 0.49 0.63 0.78 0.97 1.18 1.19 1.04 0.96 0.89 0.76 0.70 0.69 0.66 0.70 0.66 0.68 0.77 0.87
0.06 0.07 0.11 0.20 0.24 0.19 0.12 0.16 0.26 0.32 0.38 0.42 0.49 0.56 0.52 0.44 0.37 0.31 0.29 0.28 0.28 0.26 0.24 0.20 0.19 0.21 0.22 0.32 0.50 0.67 0.84 0.93 0.90 0.80 0.70 0.66 0.65 0.62 0.59 0.58 0.54 0.53 0.57 0.64
0.07 0.06 0.08 0.16 0.15 0.16 0.18 0.16 0.17 0.27 0.39 0.47 0.59 0.78 0.69 0.51 0.42 0.30 0.23 0.23 0.22 0.22 0.22 0.20 0.20 0.19 0.20 0.24 0.32 0.42 0.56 0.66 0.66 0.61 0.53 0.50 0.53 0.52 0.48 0.43 0.44 0.42 0.42 0.42
0.14 0.15 0.27 0.27 0.21 0.28 0.36 0.27 0.23 0.30 0.38 0.51 0.84 1.04 0.67 0.44 0.40 0.33 0.23 0.21 0.21 0.21 0.19 0.17 0.17 0.16 0.18 0.20 0.22 0.25 0.31 0.37 0.39 0.39 0.38 0.38 0.39 0.39 0.38 0.38 0.37 0.36 0.41 0.47
0.20 0.23 0.45 0.37 0.19 0.32 0.38 0.31 0.25 0.33 0.38 0.40 0.46 0.42 0.25 0.15 0.16 0.19 0.14 0.11 0.11 0.11 0.10 0.08 0.08 0.09 0.10 0.11 0.13 0.14 0.14 0.16 0.19 0.21 0.24 0.28 0.30 0.34 0.43 0.44 0.42 0.41 0.51 0.58
0.17 0.20 0.31 0.29 0.11 0.18 0.27 0.32 0.14 0.15 0.16 0.11 0.07 0.09 0.12 0.11 0.07 0.06 0.04 0.04 0.04 0.03 0.03 0.02 0.03 0.04 0.04 0.06 0.07 0.08 0.08 0.09 0.11 0.13 0.15 0.20 0.25 0.28 0.29 0.30 0.35 0.42 0.44 0.41
0.12 0.14 0.13 0.08 0.08 0.12 0.27 0.30 0.09 0.05 0.04 0.01 0.01 0.01 0.06 0.11 0.06 0.04 0.03 0.02 0.02 0.02 0.02 0.02 0.02 0.02 0.02 0.04 0.05 0.07 0.08 0.11 0.13 0.13 0.13 0.14 0.12 0.11 0.13 0.18 0.21 0.22 0.24 0.29
0.09 0.12 0.11 0.06 0.09 0.13 0.13 0.07 0.04 0.03 0.02 0.01 0.01 0.01 0.03 0.06 0.04 0.03 0.02 0.02 0.02 0.01 0.02 0.02 0.02 0.02 0.03 0.03 0.05 0.06 0.07 0.09 0.10 0.09 0.08 0.08 0.08 0.08 0.08 0.11 0.14 0.16 0.19 0.25
0.10 0.11 0.10 0.08 0.07 0.05 0.04 0.03 0.02 0.02 0.01 0.01 0.01 0.01 0.01 0.02 0.02 0.01 0.01 0.02 0.02 0.02 0.02 0.03 0.03 0.03 0.03 0.04 0.06 0.07 0.07 0.09 0.10 0.09 0.09 0.07 0.06 0.07 0.08 0.09 0.10 0.12 0.16 0.24
0.11 0.08 0.07 0.07 0.05 0.03 0.02 0.02 0.02 0.02 0.01 0.01 0.01 0.01 0.01 0.01 0.02 0.01 0.01 0.02 0.03 0.03 0.03 0.04 0.04 0.04 0.04 0.05 0.06 0.07 0.07 0.08 0.09 0.10 0.11 0.08 0.08 0.08 0.08 0.07 0.09 0.13 0.20 0.26
0.09 0.06 0.05 0.05 0.04 0.02 0.02 0.01 0.01 0.02 0.01 0.01 0.01 0.01 0.01 0.01 0.01 0.01 0.01 0.01 0.02 0.02 0.03 0.04 0.04 0.04 0.05 0.06 0.05 0.05 0.06 0.08 0.09 0.11 0.11 0.08 0.07 0.07 0.08 0.08 0.11 0.16 0.20 0.23
0.07 0.05 0.04 0.04 0.03 0.02 0.02 0.01 0.02 0.02 0.02 0.01 0.01 0.01 0.01 0.01 0.01 0.01 0.01 0.01 0.02 0.02 0.02 0.04 0.04 0.04 0.05 0.05 0.05 0.05 0.05 0.07 0.08 0.08 0.08 0.08 0.09 0.07 0.07 0.07 0.08 0.10 0.11 0.14
0.05 0.06 0.05 0.03 0.03 0.03 0.04 0.02 0.01 0.02 0.02 0.01 0.01 0.01 0.01 0.01 0.01 0.01 0.01 0.01 0.02 0.02 0.02 0.04 0.04 0.05 0.06 0.06 0.05 0.05 0.05 0.06 0.06 0.06 0.06 0.06 0.09 0.13 0.14 0.11 0.08 0.06 0.07 0.11
0.03 0.05 0.06 0.04 0.03 0.03 0.03 0.03 0.02 0.01 0.01 0.01 0.01 0.01 0.01 0.01 0.01 0.01 0.01 0.01 0.02 0.02 0.02 0.03 0.04 0.05 0.05 0.05 0.04 0.05 0.05 0.05 0.06 0.08 0.08 0.08 0.08 0.13 0.24 0.30 0.25 0.13 0.10 0.10
0.02 0.03 0.05 0.06 0.04 0.04 0.03 0.02 0.02 0.01 0.01 0.01 0.01 0.01 0.01 0.01 0.01 0.02 0.01 0.02 0.02 0.02 0.02 0.03 0.04 0.04 0.04 0.04 0.04 0.04 0.05 0.06 0.09 0.12 0.11 0.09 0.10 0.17 0.23 0.17 0.16 0.18 0.16 0.13
0.02 0.02 0.03 0.06 0.05 0.05 0.04 0.03 0.02 0.01 0.01 0.01 0.01 0.01 0.01 0.02 0.02 0.02 0.02 0.02 0.02 0.02 0.02 0.03 0.04 0.05 0.05 0.04 0.03 0.03 0.03 0.06 0.09 0.15 0.15 0.10 0.11 0.15 0.14 0.13 0.16 0.18 0.18 0.18
0.02 0.02 0.03 0.05 0.05 0.05 0.04 0.03 0.02 0.01 0.01 0.01 0.01 0.01 0.01 0.02 0.02 0.02 0.02 0.02 0.02 0.02 0.02 0.02 0.02 0.04 0.05 0.05 0.04 0.04 0.04 0.05 0.07 0.10 0.14 0.12 0.12 0.14 0.13 0.14 0.16 0.17 0.16 0.17
0.02 0.02 0.03 0.04 0.05 0.04 0.04 0.03 0.02 0.01 0.01 0.01 0.01 0.01 0.01 0.02 0.02 0.02 0.03 0.02 0.02 0.01 0.02 0.03 0.04 0.04 0.04 0.05 0.05 0.04 0.04 0.05 0.06 0.09 0.11 0.11 0.12 0.14 0.16 0.14 0.13 0.15 0.16 0.17
0.03 0.03 0.03 0.04 0.05 0.05 0.04 0.03 0.02 0.02 0.01 0.02 0.02 0.01 0.02 0.02 0.01 0.02 0.03 0.02 0.02 0.01 0.02 0.02 0.03 0.03 0.04 0.05 0.06 0.06 0.05 0.06 0.06 0.08 0.09 0.09 0.09 0.10 0.15 0.16 0.15 0.16 0.17 0.17
0.05 0.05 0.04 0.04 0.04 0.05 0.04 0.03 0.03 0.02 0.02 0.02 0.02 0.02 0.02 0.02 0.02 0.02 0.02 0.02 0.02 0.02 0.03 0.03 0.04 0.04 0.04 0.05 0.07 0.07 0.06 0.06 0.06 0.08 0.09 0.09 0.10 0.11 0.12 0.14 0.17 0.21 0.21 0.20
0.09 0.07 0.06 0.04 0.05 0.05 0.04 0.04 0.03 0.03 0.03 0.03 0.03 0.03 0.02 0.02 0.03 0.02 0.02 0.03 0.03 0.03 0.04 0.05 0.04 0.04 0.06 0.08 0.10 0.09 0.08 0.08 0.08 0.10 0.12 0.13 0.15 0.16 0.16 0.17 0.20 0.24 0.23 0.23
0.10 0.08 0.07 0.05 0.05 0.05 0.05 0.05 0.04 0.04 0.04 0.04 0.03 0.03 0.03 0.03 0.03 0.04 0.04 0.04 0.04 0.06 0.07 0.07 0.07 0.08 0.13 0.15 0.12 0.12 0.12 0.13 0.14 0.15 0.17 0.19 0.20 0.21 0.22 0.22 0.23 0.23 0.23 0.25
0.07 0.07 0.07 0.05 0.05 0.06 0.07 0.06 0.06 0.05 0.05 0.05 0.04 0.03 0.03 0.03 0.04 0.05 0.05 0.05 0.06 0.08 0.09 0.10 0.11 0.14 0.19 0.17 0.14 0.15 0.16 0.18 0.18 0.18 0.20 0.24 0.26 0.28 0.28 0.29 0.29 0.26 0.27 0.28
0.07 0.07 0.07 0.08 0.08 0.09 0.10 0.08 0.07 0.06 0.06 0.06 0.04 0.04 0.04 0.05 0.06 0.06 0.06 0.07 0.08 0.10 0.10 0.12 0.15 0.18 0.21 0.17 0.16 0.15 0.17 0.19 0.20 0.20 0.23 0.27 0.30 0.30 0.30 0.30 0.30 0.29 0.29 0.31
0.09 0.09 0.09 0.11 0.12 0.11 0.10 0.10 0.09 0.08 0.08 0.08 0.07 0.06 0.06 0.07 0.08 0.09 0.10 0.11 0.12 0.13 0.13 0.15 0.18 0.19 0.18 0.18 0.19 0.18 0.19 0.22 0.25 0.27 0.27 0.28 0.30 0.31 0.32 0.33 0.34 0.36 0.35 0.36
0.12 0.11 0.11 0.12 0.13 0.14 0.13 0.14 0.14 0.12 0.12 0.12 0.11 0.10 0.10 0.10 0.10 0.11 0.13 0.16 0.18 0.19 0.18 0.20 0.22 0.23 0.22 0.22 0.23 0.23 0.24 0.26 0.28 0.29 0.30 0.32 0.33 0.34 0.34 0.36 0.37 0.39 0.41 0.42
0.15 0.14 0.14 0.15 0.16 0.16 0.17 0.18 0.18 0.18 0.17 0.16 0.14 0.13 0.14 0.15 0.16 0.16 0.16 0.19 0.22 0.24 0.24 0.24 0.26 0.28 0.30 0.31 0.32 0.30 0.29 0.29 0.29 0.31 0.34 0.36 0.38 0.38 0.38 0.38 0.39 0.41 0.43 0.44